Location: Afon Aeron
(52.2500°N, 4.2500°W)
Time: 01:12:26
(UTC+00:00)

Daily predictions for brighter satellites

Satellite Brightness Start Highest point End
(mag) Time Altitude Azimuth Time Altitude Azimuth Time Altitude Azimuth
Cosmos 2227 Rocket 3.9 00:05:13 10° NNW 00:08:31 28° N 00:08:31 28° N
Cosmos 1943 Rocket 4.0 00:24:28 27° N 00:24:28 27° N 00:27:38 10° NNE
ATLAS 2AS CENTAUR R/B 4.3 00:47:00 10° WNW 00:54:08 36° N 01:00:54 10° ENE
Cosmos 2297 Rocket 4.1 00:51:11 10° NNW 00:53:25 25° NNW 00:53:25 25° NNW
SL-16 R/B 3.4 01:04:18 44° NNE 01:04:18 44° NNE 01:09:04 10° N
Cosmos 2369 Rocket 3.9 01:07:25 27° NNW 01:07:25 27° NNW 01:11:12 10° NNE
Cosmos 2263 Rocket 4.2 01:13:49 10° NNW 01:18:28 25° NE 01:23:07 10° E
USA 234 3.6 01:21:52 10° E 01:28:11 61° N 01:28:11 61° N
CZ-4C R/B 4.1 01:43:22 19° NW 01:46:48 31° N 01:53:08 10° ENE
Resurs 1-4 Rocket 3.2 01:48:23 10° NNE 01:51:57 41° NE 01:51:57 41° NE
Cosmos 2227 Rocket 4.4 01:49:14 10° NW 01:50:17 16° NW 01:50:17 16° NW
CZ-2D R/B 3.1 01:51:34 10° NNE 01:55:14 42° NE 01:55:14 42° NE
SJ 16-02 3.5 01:59:32 10° N 02:03:00 25° NE 02:03:00 25° NE
Lacrosse 5 3.3 02:13:50 32° E 02:13:50 32° E 02:16:40 10° ENE
ATLAS 5 CENTAUR R/B 3.3 02:16:15 32° N 02:16:15 32° N 02:19:34 10° NE
NPP 4.2 02:10:04 10° NNE 02:14:20 55° NE 02:14:20 55° NE
Cosmos 2181 Rocket 4.4 02:22:13 53° NNW 02:22:13 53° NNW 02:27:20 10° N
ARIANE 5 R/B 4.2 02:20:20 10° NE 02:24:34 26° E 02:25:30 24° ESE
Cosmos 2369 3.9 02:33:25 67° E 02:33:25 67° E 02:38:42 10° NE
USA 267 4.4 02:27:46 10° ENE 02:33:20 29° SE 02:34:08 28° SE
IRS-1D 3.9 02:30:34 10° NNE 02:35:33 63° E 02:35:33 63° E
CBERS-1 4.3 02:35:27 10° NNE 02:40:08 63° ENE 02:40:08 63° ENE
Cosmos 1782 4.5 02:42:19 33° NE 02:42:19 33° NE 02:45:01 10° NNE
Cosmos 972 Rocket 4.3 02:43:13 59° ENE 02:43:13 59° ENE 02:47:30 10° NNE
ADEOS II 2.2 02:40:14 10° NNE 02:45:20 70° E 02:45:20 70° E
ATLAS 2AS CENTAUR R/B 3.5 02:39:09 10° NW 02:46:44 53° NNE 02:53:44 10° ESE
SL-16 R/B 3.7 02:49:24 27° NW 02:49:24 27° NW 02:52:38 10° NNW
IDEFIX/ARIANE 42P 4.0 02:44:22 10° NNE 02:49:08 33° E 02:51:13 25° SE
Cosmos 1697 Rocket 2.6 02:56:36 76° NW 02:56:36 76° NW 03:02:07 10° NNE
Cosmos 389 Rocket 4.3 03:00:21 31° NE 03:00:21 31° NE 03:02:30 10° NNE
Cosmos 1980 Rocket 2.2 03:02:24 68° SSE 03:02:56 73° ESE 03:08:36 10° NNE
Cosmos 2360 4.0 03:02:51 81° SW 03:03:09 86° WNW 03:08:56 10° NNE
Cosmos 2263 Rocket 2.1 02:57:28 10° NNW 03:03:10 90° ENE 03:08:51 10° SSE
Cosmos 1151 Rocket 4.0 03:05:12 40° N 03:05:12 40° N 03:08:08 10° N
Cosmos 1515 Rocket 3.9 03:05:07 64° NE 03:05:07 64° NE 03:08:59 10° NNE
USA 307 3.6 03:06:10 50° E 03:06:10 50° E 03:09:23 10° ENE
Cosmos 1844 Rocket 4.4 03:02:20 10° NNW 03:07:25 33° NE 03:12:30 10° ESE
USA 308 3.5 03:09:21 54° E 03:09:21 54° E 03:12:43 10° ENE
Cosmos 1500 4.3 03:05:52 10° N 03:08:45 42° NNE 03:08:45 42° NNE
Cosmos 44 3.4 03:10:35 64° ESE 03:10:35 64° ESE 03:15:00 10° NE
Cosmos 1328 Rocket 4.3 03:12:15 44° NNW 03:12:15 44° NNW 03:15:30 10° N
USA 234 3.1 03:04:35 10° ESE 03:11:08 90° ESE 03:15:31 23° WNW
Cosmos 2322 Rocket 4.0 03:08:23 13° SSE 03:12:09 26° ESE 03:16:46 10° NE
Cosmos 1821 Rocket 4.2 03:07:26 10° NNW 03:13:10 51° W 03:13:10 51° W
Cosmos 1656 4.4 03:14:17 38° NW 03:14:30 38° NW 03:19:41 10° NNE
Cosmos 1666 4.5 03:11:18 10° N 03:14:45 31° ENE 03:18:09 10° SE
CZ-4B R/B 3.5 03:10:29 10° NNE 03:15:34 68° WNW 03:15:35 68° WNW
CZ-2D R/B 4.4 03:12:39 10° NNE 03:16:46 46° E 03:17:37 40° SE
Cosmos 1934 Rocket 3.8 03:13:15 10° NNW 03:19:19 74° W 03:20:56 50° SSW
CZ-3B R/B 2.0 03:21:32 85° E 03:21:32 85° E 03:29:32 10° ENE
Cosmos 1812 3.9 03:21:35 36° ESE 03:22:16 40° E 03:25:54 10° NNE
SL-16 R/B 3.4 03:20:04 20° SSE 03:23:16 36° ESE 03:28:25 10° NE
USA 276 4.5 03:25:21 20° ESE 03:25:21 20° ESE 03:26:29 10° ESE
IRS-1C 4.0 03:20:56 10° NNE 03:26:18 86° WNW 03:27:27 57° SSW
Cosmos 1238 Rocket 3.9 03:21:22 10° NNW 03:27:56 69° W 03:30:02 43° SSW
ATLAS CENTAUR R/B 3.8 03:14:49 10° WNW 03:29:09 66° N 03:34:19 10° E
SL-24 R/B 4.4 03:29:46 56° SSW 03:30:43 70° WSW 03:36:31 10° NNW
Spot 4 Rocket 4.4 03:26:40 10° NNE 03:31:48 62° ESE 03:34:17 30° S
Cosmos 1898 Rocket 3.5 03:26:32 10° NNW 03:31:50 85° ENE 03:37:08 10° SSE
CZ-2C R/B 4.4 03:27:45 10° NE 03:32:09 27° E 03:36:33 10° SSE
Cosmos 2227 4.2 03:26:45 10° NW 03:32:18 56° WSW 03:32:34 56° SW
Resurs 1-4 Rocket 3.3 03:28:45 10° N 03:33:02 27° WNW 03:33:02 27° WNW
Meteor 1-26 Rocket 4.1 03:34:32 55° WSW 03:35:15 60° WNW 03:40:39 10° N
CZ-2D R/B 3.3 03:32:13 10° N 03:36:33 26° WNW 03:36:33 26° WNW
CZ-4C R/B 3.7 03:30:30 10° NW 03:36:52 47° NNE 03:44:23 10° E
ASTEX 1 3.3 03:32:13 10° N 03:37:15 82° W 03:38:38 49° SSW
Cosmos 1869 Rocket 3.4 03:35:13 10° N 03:39:35 88° W 03:40:48 47° S
MSX 4.2 03:35:34 10° NNE 03:41:19 62° ESE 03:45:54 16° S
SJ 16-02 2.7 03:37:46 10° NNW 03:39:51 26° NW 03:39:51 26° NW
IRIDIUM 104 4.5 03:38:44 10° N 03:43:59 75° E 03:49:12 10° S
Nadezhda 3 Rocket 4.4 03:46:17 38° W 03:47:25 42° WNW 03:53:16 10° N
Landsat 5 3.7 03:44:22 10° SSE 03:48:52 78° ENE 03:53:18 10° NNW
Cosmos 2228 Rocket 2.9 03:48:01 56° SSW 03:48:54 78° WNW 03:53:21 10° N
SL-08 R/B 4.3 03:52:01 28° WNW 03:52:01 28° WNW 03:54:48 10° NNW
Meteor 1-5 Rocket 4.0 03:45:25 10° NNW 03:50:43 69° W 03:56:01 10° S
Cosmos 1605 Rocket 4.0 03:45:40 10° NNW 03:52:01 67° W 03:58:20 10° S
Cosmos 1937 Rocket 3.4 03:47:44 10° NNW 03:52:56 89° WSW 03:58:04 10° SSE
IRIDIUM 114 4.3 03:47:53 10° N 03:53:09 87° E 03:58:23 10° S
Lacrosse 5 2.1 03:53:01 39° W 03:54:44 61° NNW 03:59:46 10° ENE
CZ-4C R/B 2.9 03:55:01 39° SSE 03:56:14 88° WSW 03:59:47 10° NNW
ERBS 2.3 03:58:34 69° SSE 03:58:40 69° SSE 04:02:02 10° ENE
H-2A R/B 2.0 03:54:58 10° SSE 03:59:25 87° WSW 04:03:58 10° NNW
ATLAS 5 CENTAUR R/B 3.7 03:57:47 14° NW 04:00:44 24° N 04:05:03 10° NE
Meteor 1-10 Rocket 4.3 03:56:19 18° S 04:00:47 86° ESE 04:06:45 10° NNE
USA 32 4.2 03:55:34 10° N 04:00:52 77° E 04:06:07 10° S
FALCON 9 DEB 4.4 04:01:05 29° SSE 04:01:31 30° SSE 04:04:35 10° E
IRIDIUM 103 4.2 03:57:03 10° N 04:02:18 80° W 04:07:31 10° S
CSL-04 DEB 4.4 03:59:14 10° SSE 04:03:35 81° WSW 04:08:00 10° NNW
ARIANE 5 R/B 2.6 03:59:01 10° N 04:04:01 55° WNW 04:05:50 36° SW
Meteor 2-6 Rocket 4.2 04:00:49 24° SSW 04:04:22 76° WNW 04:10:18 10° N
ERS-2 2.6 04:00:59 10° SSE 04:04:36 62° ENE 04:08:14 10° N
SL-4 R/B 3.3 04:03:35 27° SSW 04:05:19 37° SSE 04:09:41 10° E
CZ-2C R/B 2.6 04:02:33 10° NNE 04:06:22 88° ESE 04:08:05 32° SSW
Cosmos 2278 4.2 04:05:20 32° W 04:07:23 44° NW 04:12:51 10° NNE
Cosmos 1763 Rocket 3.7 04:04:27 20° SSW 04:08:10 74° ESE 04:13:29 10° NNE
GENESIS II 4.2 04:09:22 46° WSW 04:10:27 71° NW 04:14:29 10° NE
USA 305 3.0 04:10:20 37° W 04:11:56 71° N 04:16:11 10° ENE
NOSS 3-4 (A) 3.8 04:07:20 10° NW 04:14:11 68° SW 04:21:47 10° SSE
NOSS 3-4 (C) 3.8 04:07:27 10° NW 04:14:17 69° SW 04:21:53 10° SSE
COSMOS 2455 4.4 04:09:08 10° NNW 04:14:39 34° NNE 04:20:08 10° E
USA 306 3.0 04:14:32 33° W 04:16:19 70° N 04:20:34 10° E
USA 267 3.3 04:10:29 10° ENE 04:17:03 76° SSE 04:21:28 23° SW
Cosmos 1782 4.2 04:17:56 23° WNW 04:17:56 23° WNW 04:20:57 10° NNW
IRIDIUM 106 4.3 04:15:27 10° N 04:20:35 58° W 04:25:41 10° SSW
CZ-4B R/B 2.2 04:21:11 10° SSE 04:24:20 52° ENE 04:27:34 10° N
ADEOS II 3.3 04:20:38 10° N 04:24:46 24° WNW 04:26:15 21° W
NOSS 3-3 (A) 4.1 04:22:09 25° WSW 04:25:56 74° NW 04:32:54 10° NE
NOSS 3-3 (C) 4.0 04:22:16 25° WSW 04:26:02 74° NW 04:32:59 10° NE
Cosmos 540 Rocket 4.1 04:21:39 10° S 04:26:42 58° ESE 04:31:48 10° NNE
IDEFIX/ARIANE 42P 2.9 04:23:51 10° N 04:28:53 46° WNW 04:32:01 22° SW
ADEOS Rocket 3.0 04:22:20 10° SSE 04:28:54 87° WSW 04:34:50 10° NNW
PAYLOAD A 3.8 04:24:40 10° NNE 04:29:24 82° ESE 04:34:07 10° SSW
Cosmos 921 Rocket 3.6 04:29:45 28° W 04:31:09 36° WNW 04:35:05 10° N
Cosmos 2100 Rocket 4.0 04:24:49 10° NNW 04:31:14 79° W 04:37:35 10° S
Cosmos 389 Rocket 4.3 04:34:13 17° WNW 04:34:13 17° WNW 04:36:25 10° NNW
Cosmos 1727 Rocket 4.0 04:28:05 10° SSW 04:34:23 69° WNW 04:40:42 10° N
Cosmos 2360 Rocket 2.8 04:31:13 10° S 04:36:46 57° ESE 04:42:19 10° NE
ATLAS 2AS CENTAUR R/B 2.8 04:30:32 10° NW 04:37:58 61° SW 04:44:47 10° SSE
Cosmos 1459 Rocket 3.8 04:32:07 10° NNW 04:38:13 76° W 04:44:14 10° S
Cosmos 1570 Rocket 4.3 04:33:04 10° SSW 04:38:21 70° ESE 04:43:42 10° NNE
Cosmos 1802 Rocket 4.0 04:34:00 10° N 04:40:14 87° W 04:46:31 10° S
Cosmos 1697 Rocket 4.2 04:38:20 15° WNW 04:41:23 22° NW 04:45:45 10° NNE
Cosmos 468 Rocket 4.1 04:37:27 17° SW 04:41:26 60° WNW 04:46:40 10° NNE
SAR-Lupe-4 3.8 04:37:55 10° SSE 04:41:29 72° ENE 04:45:06 10° NNW
Cosmos 1484 Rocket 4.3 04:37:51 10° NNE 04:41:39 40° E 04:45:27 10° SSE
Cosmos 1908 Rocket 4.3 04:39:16 10° N 04:43:42 59° ENE 04:48:07 10° SSE
USA 307 3.1 04:42:21 19° W 04:45:19 68° N 04:49:34 10° E
Cosmos 2263 Rocket 3.4 04:42:34 10° WNW 04:46:21 19° W 04:50:08 10° SW
Cosmos 44 Rocket 3.7 04:42:22 10° SSW 04:47:03 63° SE 04:51:55 10° NE
Cosmos 1980 Rocket 3.3 04:44:11 17° W 04:47:29 29° NW 04:52:25 10° NNE
Meteor 1-11 Rocket 4.2 04:42:39 10° NNW 04:48:00 39° W 04:53:12 10° SSW
USA 308 3.1 04:45:33 18° W 04:48:39 68° N 04:52:55 10° E
Meteor 1-4 Rocket 3.4 04:47:58 22° WSW 04:49:23 30° WNW 04:52:34 10° N
Cosmos 1666 3.7 04:47:01 10° NNW 04:50:15 26° W 04:52:53 13° SW
Cosmos 1844 Rocket 2.7 04:46:08 10° NW 04:51:43 63° WSW 04:57:17 10° SSE
Okean 1 4.3 04:47:55 10° S 04:51:50 51° E 04:55:47 10° NNE
Cosmos 44 4.2 04:49:00 17° W 04:51:54 32° NNW 04:56:15 10° NE
Cosmos 2278 Rocket 3.6 04:48:27 10° NNW 04:53:50 41° NE 04:59:10 10° ESE
Meteor 1-31 Rocket 4.1 04:50:34 10° NNE 04:54:14 43° E 04:57:55 10° S
USA 234 3.7 04:48:36 10° SSE 04:54:39 39° SW 05:00:43 10° WNW
Cosmos 2322 Rocket 2.2 04:50:15 11° SW 04:55:44 69° WNW 05:01:29 10° NNE
Cosmos 1707 Rocket 3.9 04:51:52 10° SSW 04:56:01 44° WNW 05:00:14 10° N
Cosmos 2123 Rocket 4.4 04:49:51 10° S 04:56:04 70° E 05:02:22 10° NNE
Cosmos 1844 3.6 04:51:44 10° NW 04:57:17 68° WSW 05:02:48 10° SSE
Cosmos 1812 4.1 04:56:43 17° W 04:58:14 22° WNW 05:01:17 10° NNW
USA 276 3.2 04:57:43 19° WSW 04:59:19 29° SSW 05:02:10 10° SE
SAR-Lupe-1 3.9 04:56:55 10° S 05:00:29 76° WSW 05:04:06 10° NNW
Meteor 1-27 Rocket 4.0 04:54:51 10° SSW 05:00:40 56° WNW 05:06:29 10° N
Cosmos 1437 Rocket 2.9 04:58:42 10° S 05:02:30 74° E 05:06:24 10° NNE
Cosmos 1536 3.7 04:59:54 10° NNW 05:03:24 28° W 05:06:54 10° SSW
Meteor 2-9 Rocket 4.4 04:57:56 10° N 05:03:30 74° ENE 05:08:52 10° SSE
Cosmos 372 Rocket 4.2 05:02:06 10° NW 05:07:01 46° WSW 05:11:52 10° S
SL-16 R/B 2.5 05:01:58 11° SW 05:07:15 51° NW 05:12:49 10° NNE
Cosmos 1733 Rocket 3.6 05:03:16 10° NNW 05:07:17 36° W 05:11:13 10° SSW
CZ-2C R/B 2.7 05:05:38 10° N 05:10:39 54° WNW 05:15:41 10° SW
Cosmos 2237 4.2 05:08:50 10° SW 05:14:33 78° WNW 05:20:18 10° NNE
Cosmos 2173 Rocket 4.3 05:08:41 10° NNW 05:14:38 44° W 05:20:36 10° SSW
ALOS 2.4 05:10:23 10° NNE 05:15:06 82° ESE 05:19:46 10° SSW
Cosmos 2242 Rocket 3.8 05:12:00 10° S 05:16:23 79° E 05:20:50 10° NNE
Cosmos 1689 Rocket 2.0 05:14:14 10° S 05:17:12 79° W 05:20:12 10° NNW
Intercosmos 25 2.8 05:13:48 10° SSW 05:17:19 74° WNW 05:20:31 10° N
SKYMED 2 3.7 05:15:08 10° SSE 05:19:28 86° ENE 05:23:51 10° NNW
Cosmos 2285 Rocket 4.2 05:14:22 10° NNW 05:20:51 85° ENE 05:27:18 10° SSE
PSLV R/B 4.2 05:18:17 10° N 05:22:07 34° WNW 05:25:55 10° SW
Cosmos 2298 Rocket 4.2 05:18:45 10° NNW 05:23:52 49° WSW 05:28:57 10° S
Cosmos 2219 Rocket 3.1 05:19:50 10° S 05:25:19 53° ESE 05:30:51 10° NE
CZ-4C R/B 3.0 05:19:00 10° NW 05:26:00 76° SW 05:34:11 10° SE
Cosmos 1862 Rocket 4.0 05:26:38 10° SW 05:30:45 40° WNW 05:34:52 10° N
RESURS DK-1 3.2 05:27:22 10° NNW 05:31:30 56° NE 05:35:36 10° SE
Meteor 2-20 Rocket 4.5 05:27:17 10° SSW 05:33:24 72° WNW 05:39:33 10° N
ERBS 3.1 05:31:54 10° W 05:35:07 40° NNW 05:38:19 10° ENE
